Weather reports worldwide

Advertisment
Wainfleet, United Kingdom (3392): temperature & dewpoint: 15.06.2018 22:00:00 - 21.06.2018 22:00:00 (BST)Wainfleet, United Kingdom (3392): temperature -20cm & temperature -100cm: 15.06.2018 22:00:00 - 21.06.2018 22:00:00 (BST)Wainfleet, United Kingdom (3392): wind speed & gusts: 15.06.2018 22:00:00 - 21.06.2018 22:00:00 (BST)Wainfleet, United Kingdom (3392): wind direction: 15.06.2018 22:00:00 - 21.06.2018 22:00:00 (BST)Wainfleet, United Kingdom (3392): reduced air pressure: 15.06.2018 22:00:00 - 21.06.2018 22:00:00 (BST)Wainfleet, United Kingdom (3392): visibility: 15.06.2018 22:00:00 - 21.06.2018 22:00:00 (BST)Wainfleet, United Kingdom (3392): precipitation: 15.06.2018 22:00:00 - 21.06.2018 22:00:00 (BST)
Date & Time tt [°C] td [°C] tt -20cm [°C] tt -100cm [°C] ff [km/h] ff [kn] fx [km/h] fx [kn] dd ppp [hPa] vv [km] rr [mm]
21.06.2018 22:00:00 11,5 6,4 - - 5 3 - - SW 1028,4 29 0,0
21.06.2018 21:00:00 13,4 6,4 - - 4 2 - - SE 1028,0 30 0,0
21.06.2018 20:00:00 14,2 6,3 - - 9 5 - - SE 1027,8 29 0,0
21.06.2018 19:00:00 15,0 5,8 - - 15 8 - - ENE 1027,5 23 0,0
21.06.2018 18:00:00 15,9 6,1 - - 18 10 - - NE 1027,2 26 0,0
21.06.2018 17:00:00 15,9 5,6 - - 22 12 - - NE 1027,0 25 0,0
21.06.2018 16:00:00 16,1 6,0 - - 22 12 - - NNE 1026,5 23 0,0
21.06.2018 15:00:00 16,3 6,5 - - 22 12 - - NNE 1026,1 27 0,0
21.06.2018 14:00:00 15,5 7,2 - - 26 14 - - N 1025,7 29 0,0
21.06.2018 13:00:00 15,4 6,8 - - 24 13 - - NNE 1025,3 28 0,0
21.06.2018 12:00:00 15,9 5,1 - - 28 15 - - N 1024,9 27 0,0
21.06.2018 11:00:00 13,7 4,2 - - 26 14 46 25 NW 1024,3 27 0,0
21.06.2018 10:00:00 13,4 4,5 16,5 14,4 35 19 50 27 NNW 1023,1 29 0,0
21.06.2018 09:00:00 13,2 5,3 - - 35 19 54 29 NNW 1022,4 27 0,0
21.06.2018 08:00:00 12,3 5,3 - - 31 17 48 26 NW 1021,8 15 0,0
21.06.2018 07:00:00 11,2 6,0 - - 26 14 - - WNW 1021,2 30 0,0
21.06.2018 06:00:00 10,1 6,1 - - 22 12 - - WNW 1020,8 28 0,0
21.06.2018 05:00:00 8,6 6,1 - - 16 9 - - W 1020,3 25 0,0
21.06.2018 04:00:00 9,5 5,8 - - 16 9 - - W 1020,1 28 0,0
21.06.2018 03:00:00 10,7 5,1 - - 21 11 - - WNW 1020,1 28 0,0
21.06.2018 02:00:00 12,4 4,9 - - 29 16 - - WNW 1019,6 30 0,0
21.06.2018 01:00:00 12,8 6,7 - - 24 13 - - WNW 1019,1 30 0,0
21.06.2018 00:00:00 13,2 7,5 - - 18 10 - - W 1018,9 29 0,0
20.06.2018 23:00:00 13,3 10,2 - - 5 3 - - W 1019,0 28 0,0
20.06.2018 22:00:00 13,3 10,6 - - 9 5 - - N 1019,0 26 0,0
20.06.2018 21:00:00 14,1 10,4 - - 13 7 - - NNE 1018,2 30 0,0
20.06.2018 20:00:00 14,9 10,9 - - 22 12 - - N 1017,9 30 0,0
20.06.2018 19:00:00 20,1 13,3 - - 22 12 - - WNW 1017,1 35 0,0
20.06.2018 18:00:00 21,2 14,1 - - 21 11 48 26 NW 1016,8 35 0,0
20.06.2018 17:00:00 24,1 14,0 - - 34 18 48 26 W 1016,2 30 0,0
20.06.2018 16:00:00 24,7 15,0 - - 35 19 54 29 W 1016,2 30 0,0
20.06.2018 15:00:00 23,7 15,6 - - 31 17 52 28 WSW 1016,1 30 0,0
20.06.2018 14:00:00 23,1 15,8 - - 35 19 50 27 WSW 1016,3 30 0,0
20.06.2018 13:00:00 22,0 15,6 - - 37 20 52 28 WSW 1016,6 30 0,0
20.06.2018 12:00:00 22,0 15,3 - - 34 18 48 26 WSW 1016,5 35 0,0
20.06.2018 11:00:00 22,5 15,7 - - 35 19 54 29 SW 1016,7 35 0,0
20.06.2018 10:00:00 21,9 15,4 16,5 14,2 39 21 57 31 SW 1016,5 30 0,0
20.06.2018 09:00:00 20,4 15,3 - - 39 21 52 28 SW 1016,9 30 0,0
20.06.2018 08:00:00 18,9 15,0 - - 39 21 50 27 SW 1017,1 30 0,0
20.06.2018 07:00:00 17,2 14,9 - - 34 18 - - SW 1017,4 27 0,0
20.06.2018 06:00:00 15,5 14,6 - - 26 14 - - SW 1018,0 20 0,0
20.06.2018 05:00:00 15,2 14,4 - - 24 13 - - SSW 1018,1 20 0,0
20.06.2018 04:00:00 15,5 14,7 - - 24 13 - - SSW 1018,2 23 0,0
20.06.2018 03:00:00 15,9 14,9 - - 21 11 - - SW 1018,6 21 0,0
20.06.2018 02:00:00 16,3 15,1 - - 22 12 - - SSW 1019,0 24 0,0
20.06.2018 01:00:00 16,6 15,2 - - 16 9 - - SW 1019,3 25 0,0
20.06.2018 00:00:00 17,6 15,4 - - 24 13 - - SW 1019,5 28 0,0
19.06.2018 23:00:00 18,3 15,9 - - 22 12 - - SW 1019,6 29 0,0
19.06.2018 22:00:00 19,1 16,1 - - 16 9 - - SSW 1019,6 30 0,0
19.06.2018 21:00:00 21,3 16,1 - - 21 11 - - SW 1019,4 30 0,0
19.06.2018 20:00:00 22,5 16,4 - - 22 12 - - SW 1019,4 29 0,0
19.06.2018 19:00:00 23,0 16,4 - - 28 15 - - WSW 1019,5 29 0,0
19.06.2018 18:00:00 23,0 16,2 - - 24 13 - - WSW 1019,6 28 0,0
19.06.2018 17:00:00 23,8 16,6 - - 26 14 - - SW 1019,6 27 0,0
19.06.2018 16:00:00 21,7 16,3 - - 21 11 - - SSW 1020,2 25 0,0
19.06.2018 15:00:00 20,7 15,7 - - 16 9 - - S 1020,6 26 0,0
19.06.2018 14:00:00 20,6 14,6 - - 18 10 - - S 1021,0 25 0,0
19.06.2018 13:00:00 20,1 14,5 - - 21 11 - - S 1021,3 21 0,0
19.06.2018 12:00:00 19,8 13,6 - - 22 12 - - SSW 1021,7 22 0,0
19.06.2018 11:00:00 19,6 13,3 - - 18 10 - - W 1021,9 22 0,0
19.06.2018 10:00:00 19,6 13,1 16,2 14,0 16 9 - - W 1021,9 24 0,0
19.06.2018 09:00:00 17,7 12,1 - - 9 5 - - W 1021,7 24 0,0
19.06.2018 08:00:00 16,9 12,6 - - 11 6 - - WNW 1021,5 26 0,0
19.06.2018 07:00:00 16,5 12,2 - - 18 10 - - WNW 1020,8 27 0,0
19.06.2018 06:00:00 16,5 13,5 - - 18 10 - - W 1020,0 24 0,0
19.06.2018 05:00:00 16,3 14,5 - - 13 7 - - W 1019,3 35 0,0
19.06.2018 04:00:00 16,6 14,3 - - 18 10 - - W 1018,6 30 0,0
19.06.2018 03:00:00 17,8 15,1 - - 21 11 - - W 1018,1 30 0,0
19.06.2018 02:00:00 17,9 15,1 - - 28 15 - - WSW 1017,6 30 0,0
19.06.2018 01:00:00 17,9 15,0 - - 26 14 - - WSW 1017,0 29 0,0
19.06.2018 00:00:00 18,5 15,3 - - 29 16 - - WSW 1016,8 29 0,0
18.06.2018 23:00:00 19,0 15,2 - - 22 12 - - SW 1017,1 29 0,0
18.06.2018 22:00:00 19,6 15,0 - - 24 13 - - SW 1016,7 30 0,0
18.06.2018 21:00:00 20,2 14,6 - - 26 14 - - SW 1016,1 28 0,0
18.06.2018 20:00:00 21,0 14,2 - - 26 14 - - WSW 1015,9 30 0,0
18.06.2018 19:00:00 21,9 13,6 - - 26 14 - - W 1015,7 35 0,0
18.06.2018 18:00:00 22,8 13,2 - - 29 16 50 27 WSW 1015,5 35 0,0
18.06.2018 17:00:00 22,5 12,0 - - 34 18 50 27 W 1015,7 23 0,0
18.06.2018 16:00:00 22,7 11,8 - - 34 18 52 28 W 1015,6 30 0,0
18.06.2018 15:00:00 22,8 10,6 - - 35 19 48 26 W 1016,1 30 0,0
18.06.2018 14:00:00 22,2 10,9 - - 26 14 - - W 1015,8 35 0,0
18.06.2018 13:00:00 21,5 11,0 - - 28 15 - - W 1016,2 30 0,0
18.06.2018 12:00:00 20,5 12,5 - - 28 15 - - W 1016,0 30 0,0
18.06.2018 11:00:00 19,4 12,1 - - 26 14 - - W 1016,0 29 0,0
18.06.2018 10:00:00 18,6 13,0 15,7 14,0 26 14 - - W 1015,9 30 0,0
18.06.2018 09:00:00 17,8 14,0 - - 26 14 - - WSW 1015,5 30 0,0
18.06.2018 08:00:00 16,4 13,2 - - 24 13 - - WSW 1015,1 35 0,0
18.06.2018 07:00:00 15,6 13,8 - - 21 11 - - WSW 1014,9 30 0,0
18.06.2018 06:00:00 14,6 13,8 - - 9 5 - - WSW 1014,5 23 0,0
18.06.2018 05:00:00 14,3 13,5 - - 18 10 - - SSW 1014,1 17 0,0
18.06.2018 04:00:00 15,1 14,1 - - 22 12 - - SW 1014,0 19 0,0
18.06.2018 03:00:00 15,2 14,1 - - 24 13 - - SW 1013,8 19 0,0
18.06.2018 02:00:00 15,1 14,1 - - 26 14 - - SW 1014,0 17 0,0
18.06.2018 01:00:00 15,6 14,0 - - 28 15 - - SW 1013,9 22 0,0
18.06.2018 00:00:00 15,7 13,9 - - 29 16 - - SW 1013,8 24 0,0
17.06.2018 23:00:00 15,8 13,7 - - 24 13 - - SSW 1014,1 22 0,0
17.06.2018 22:00:00 15,9 13,6 - - 26 14 - - SSW 1014,2 22 0,0
17.06.2018 21:00:00 15,6 13,6 - - 21 11 - - SSW 1013,9 25 0,0
17.06.2018 20:00:00 16,6 12,8 - - 22 12 - - SW 1014,1 29 0,0
17.06.2018 19:00:00 16,7 12,9 - - 24 13 - - SSW 1013,9 27 0,0
17.06.2018 18:00:00 17,1 12,3 - - 24 13 - - SW 1014,1 30 0,0
17.06.2018 17:00:00 17,6 11,4 - - 29 16 - - SW 1014,2 26 0,0
17.06.2018 16:00:00 18,2 11,7 - - 22 12 - - SW 1014,1 27 0,0
17.06.2018 15:00:00 18,5 10,5 - - 28 15 - - WSW 1014,0 29 0,0
17.06.2018 14:00:00 18,2 12,1 - - 16 9 - - SW 1014,1 27 0,0
17.06.2018 13:00:00 15,7 11,6 - - 15 8 - - WSW 1014,4 30 0,0
17.06.2018 12:00:00 16,6 10,2 - - 28 15 - - W 1014,1 35 0,0
17.06.2018 11:00:00 16,5 11,3 - - 22 12 - - W 1013,8 30 0,0
17.06.2018 10:00:00 15,8 11,6 15,7 14,0 24 13 - - WSW 1013,8 26 0,0
17.06.2018 09:00:00 14,9 11,7 - - 24 13 - - WSW 1013,9 24 0,0
17.06.2018 08:00:00 13,9 11,6 - - 21 11 - - WSW 1013,5 18 0,0
17.06.2018 07:00:00 13,0 11,6 - - 15 8 - - SW 1013,2 19 0,0
17.06.2018 06:00:00 11,8 10,8 - - 15 8 - - WSW 1012,7 18 0,0
17.06.2018 05:00:00 10,7 9,9 - - 13 7 - - WSW 1012,5 18 0,0
17.06.2018 04:00:00 10,3 9,1 - - 9 5 - - W 1012,4 22 0,0
17.06.2018 03:00:00 10,2 9,1 - - 11 6 - - SW 1012,2 20 0,0
17.06.2018 02:00:00 11,4 9,6 - - 15 8 - - W 1012,1 25 0,0
17.06.2018 01:00:00 12,2 10,4 - - 16 9 - - W 1011,9 25 0,0
17.06.2018 00:00:00 13,5 11,0 - - 16 9 - - W 1011,4 29 0,0
16.06.2018 23:00:00 13,2 11,8 - - 5 3 - - WSW 1011,4 27 0,0
16.06.2018 22:00:00 13,5 11,6 - - 8 4 - - WNW 1011,1 30 0,0
16.06.2018 21:00:00 15,4 13,3 - - 26 14 - - WSW 1010,2 3,0 5,4
16.06.2018 20:00:00 17,5 12,8 - - 29 16 46 25 SSW 1009,7 30 0,0
16.06.2018 19:00:00 19,1 12,6 - - 39 21 54 29 SSW 1009,5 30 0,0
16.06.2018 18:00:00 19,2 11,7 - - 35 19 48 26 SW 1009,9 30 0,0
16.06.2018 17:00:00 19,5 11,2 - - 35 19 48 26 SSW 1010,2 30 0,0
16.06.2018 16:00:00 19,8 10,5 - - 31 17 - - SSW 1010,6 30 0,0
16.06.2018 15:00:00 19,5 9,9 - - 26 14 - - SW 1011,2 30 0,0
16.06.2018 14:00:00 19,6 9,7 - - 28 15 - - SW 1011,5 29 0,0
16.06.2018 13:00:00 17,9 9,7 - - 26 14 - - SSW 1012,0 26 0,0
16.06.2018 12:00:00 18,3 10,4 - - 26 14 - - SSW 1012,7 24 0,0
16.06.2018 11:00:00 16,4 10,7 - - 24 13 - - SSW 1013,0 22 0,0
16.06.2018 10:00:00 15,3 11,0 15,7 14,0 16 9 - - SW 1013,2 21 0,0
16.06.2018 09:00:00 13,7 11,3 - - 11 6 - - SW 1013,5 19 0,0
16.06.2018 08:00:00 13,7 10,8 - - 13 7 - - SSW 1013,4 21 0,0
16.06.2018 07:00:00 13,7 10,0 - - 5 3 - - SW 1013,2 26 0,0
16.06.2018 06:00:00 12,4 10,0 - - 5 3 - - WSW 1013,3 27 0,0
16.06.2018 05:00:00 12,1 9,7 - - 4 2 - - WSW 1013,2 19 0,0
16.06.2018 04:00:00 12,4 10,1 - - 9 5 - - WSW 1013,6 13 0,0
16.06.2018 03:00:00 12,5 10,0 - - 4 2 - - W 1014,0 18 0,0
16.06.2018 02:00:00 12,7 10,6 - - 8 4 - - WNW 1014,2 14 0,0
16.06.2018 01:00:00 12,7 10,6 - - 8 4 - - WNW 1014,5 16 0,0
16.06.2018 00:00:00 12,5 10,3 - - 4 2 - - ESE 1014,5 22 0,0
15.06.2018 23:00:00 13,3 10,4 - - 4 2 - - SE 1014,6 22 0,0
15.06.2018 22:00:00 14,8 10,8 - - 4 2 - - SE 1014,8 23 0,0

tt = temperature
td = dewpoint
tt -20cm = temperature -20cm
tt -100cm = temperature -100cm
ff = wind speed
fx = gusts
dd = wind direction
ppp = reduced air pressure
vv = visibility
rr = precipitation

Next stations